[[[{"header":{"parameterUnit":"kt","parameterCategory":2,"dx":1,"dy":1,"la1":30.253999710083008,"la2":30.299108505249023,"lo1":-89.0895004272461,"lo2":-89.04439544677734,"nx":28,"ny":28,"refTime":"2022-09-27T21:00:00:Z","depth":0,"parameterNumber":1,"parameterNumberName":"U-component_of_WINDS"},"data":[-5.5528,-5.5729,-5.5713,-5.5935,-5.5957,-5.6106,-5.6154,-5.6213,-5.6256,-5.6429,-5.6525,-5.6527,-5.6562,-5.6672,-5.6774,-5.6773,-5.682,-5.6902,-5.6887,-5.6533,-5.6483,-5.6435,-5.6389,-5.6911,-5.6912,-5.726,-5.7263,-5.7265,-5.5266,-5.5291,-5.5403,-5.5502,-5.5597,-5.5507,-5.5577,-5.5664,-5.5799,-5.5852,-5.5946,-5.6097,-5.6213,-5.622,-5.6329,-5.6421,-5.6386,-5.6452,-5.6449,-5.6456,-5.6074,-5.6025,-5.6479,-5.6479,-5.6478,-5.6478,-5.6478,-5.6478,-5.4785,-5.4907,-5.4958,-5.508,-5.5124,-5.5189,-5.5302,-5.5303,-5.5412,-5.5526,-5.5483,-5.5635,-5.5685,-5.5808,-5.5844,-5.5961,-5.5885,-5.5953,-5.5971,-5.5991,-5.6016,-5.5522,-5.5977,-5.5976,-5.5975,-5.5974,-5.5973,0,-5.4431,-5.4409,-5.4517,-5.462,-5.4707,-5.4785,-5.4853,-5.4921,-5.4869,-5.4961,-5.5093,-5.5166,-5.5309,-5.5432,-5.5529,-5.5554,-5.5474,-5.5461,-5.5508,-5.5537,-5.5547,-5.5549,-5.4932,-5.545,-5.5445,-5.5442,-5.544,-5.5438,-5.395,-5.4093,-5.4138,-5.4215,-5.4249,-5.4374,-5.4446,-5.4388,-5.4467,-5.4541,-5.465,-5.4771,-5.4866,-5.5078,-5.5079,-5.5186,-5.5149,-5.5349,-5.5165,-5.5183,-5.5159,-5.5154,-5.5169,-5.5389,-5.5395,-5.5401,-5.5405,0,-5.3682,-5.3655,-5.3871,-5.3901,-5.3913,-5.4065,-5.409,-5.4208,-5.4196,-5.4357,-5.4391,-5.4374,-5.4505,-5.4472,-5.4614,-5.4593,-5.4843,-5.48,-5.4825,-5.4817,-5.4997,-5.4983,-5.5577,-5.5653,-5.5105,-5.511,-5.5114,0,-5.3265,-5.3454,-5.3404,-5.3531,-5.3738,-5.3677,-5.3884,-5.3895,-5.3938,-5.4064,-5.3965,-5.4085,-5.4025,-5.414,-5.411,-5.4307,-5.4332,-5.433,-5.4322,-5.4344,-5.4345,-5.439,-5.4367,-5.4289,-5.4286,-5.4283,-5.4281,0,-5.2854,-5.3047,-5.3251,-5.3291,-5.3344,-5.3441,-5.3467,-5.3515,-5.3586,-5.3671,-5.3717,-5.382,-5.3879,-5.3959,-5.3921,-5.3798,-5.416,-5.3983,-5.4159,-5.4161,-5.4247,-5.4244,-5.4771,-5.4277,-5.4276,-5.4275,-5.4274,0,-5.2515,-5.2604,-5.2904,-5.2945,-5.2999,-5.3133,-5.3232,-5.3339,-5.3397,-5.3387,-5.3454,-5.3387,-5.3554,-5.3381,-5.3611,-5.3462,-5.3525,-5.3537,-5.3548,-5.3568,-5.3378,-5.3687,-5.4187,-5.4241,-5.3576,-5.3571,-5.3565,0,-5.2053,-5.2349,-5.23,-5.2585,-5.2718,-5.2601,-5.2747,-5.2802,-5.2802,-5.2913,-5.291,-5.3038,-5.2902,-5.2939,-5.3055,-5.306,-5.3253,-5.3032,-5.3197,-5.3204,-5.3192,-5.365,-5.3736,-5.4079,-5.349,-5.3498,-5.3504,0,-5.1694,-5.1757,-5.1812,-5.1856,-5.192,-5.203,-5.2198,-5.2312,-5.239,-5.246,-5.2603,-5.2778,-5.2684,-5.2745,-5.2702,-5.2826,-5.312,-5.2709,-5.271,-5.2789,-5.3448,-5.353,-5.3588,-5.3063,-5.3072,-5.308,-5.3444,0,-5.1198,-5.1341,-5.1486,-5.1588,-5.1667,-5.1843,-5.1812,-5.1899,-5.1849,-5.1846,-5.2051,-5.2089,-5.2206,-5.2261,-5.2215,-5.2508,-5.2456,-5.2354,-5.219,-5.2488,-5.2608,-5.2656,-5.2013,-5.2008,-5.2004,-5.2,0,0,-5.0766,-5.0972,-5.0915,-5.1077,-5.1142,-5.102,-5.1212,-5.1259,-5.1361,-5.1408,-5.1314,-5.1571,-5.1608,-5.1861,-5.1951,-5.1997,-5.2048,-5.1946,-5.2345,-5.2384,-5.2419,-5.2548,-5.2599,-5.1993,-5.1991,-5.199,-5.1988,0,-5.058,-5.0618,-5.0808,-5.0855,-5.0923,-5.091,-5.0956,-5.1002,-5.101,-5.121,-5.1109,-5.1227,-5.1435,-5.1488,-5.1542,-5.1912,-5.1832,-5.1949,-5.216,-5.2303,-5.2347,-5.2386,-5.2522,-5.257,-5.1978,-5.1978,-5.1979,0,-5.0225,-5.0259,-5.0347,-5.0486,-5.0531,-5.067,-5.0487,-5.0642,-5.0744,-5.0606,-5.0808,-5.0825,-5.0892,-5.1135,-5.1242,-5.1161,-5.1637,-5.148,-5.1506,-5.1519,-5.1656,-5.1709,-5.1756,-5.1134,-5.1131,-5.1129,0,0,-5.0069,-5.0202,-5.0223,-5.0445,-5.0479,-5.0463,-5.0534,-5.0494,-5.0556,-5.0582,-5.0605,-5.0669,-5.0789,-5.087,-5.0981,-5.125,-5.1262,-5.1377,-5.1417,-5.145,-5.1481,-5.1626,-5.1679,-5.1118,-5.1118,-5.1117,0,0,-4.9995,-5.0028,-4.9968,-5.0222,-5.0285,-5.0321,-5.0458,-5.0385,-5.0482,-5.0459,-5.0399,-5.0413,-5.0639,-5.0661,-5.0523,-5.0922,-5.0759,-5.0791,-5.0901,-5.0951,-5.099,-5.0983,-5.0345,0,0,0,0,0,-4.9791,-5.0023,-4.9968,-5.0006,-5.0184,-5.0351,-5.0373,-5.0328,-5.0213,-5.0323,-5.0329,-5.0237,-5.0574,-5.045,-5.0488,-5.0646,-5.0981,-5.1006,-5.1029,-5.1233,-5.1286,-5.133,0,0,0,0,0,0,-4.9806,-4.9853,-4.9962,-5.0009,-5.0048,-5.0342,-5.0138,-5.0132,-5.0201,-5.018,-5.0239,-5.0239,-5.0205,-5.0427,-5.0462,-5.0613,-5.0332,-5.0991,-5.1012,-5.103,-5.1251,-5.1294,-5.1331,0,0,0,0,0,-4.9817,-4.9855,-5.0152,-5.0005,-5.0039,-5.0035,-5.0129,-5.0122,-5.0175,-5.0187,-5.0184,-5.0135,-5.021,-5.0237,-5.0448,-5.0598,-5.0308,-5.0321,-5.1004,-5.1021,-5.1035,-5.1272,0,0,0,0,0,0,-4.9826,-4.985,-5.0157,-5.0166,-4.9915,-5.0018,-5.0032,-5.0114,-5.0176,-5.0176,-5.0079,-5.0062,-5.0217,-5.0236,-5.0258,-5.0595,-5.0287,-5.0301,-5.0309,-5.1017,-5.1029,-5.1041,0,0,0,0,0,0,-4.9829,-4.9859,-5.0162,-5.0051,-5.0046,-5.0002,-5.0015,-5.0187,-5.0178,-5.0064,-5.0052,-5.0071,-5.0185,-5.0237,-5.0253,-5.0524,-5.0271,-5.0285,-5.0294,-5.0299,-5.1027,-5.1037,0,0,0,0,0,0,-4.9841,-4.9866,-5.0048,-5.0045,-5.004,-5.0135,-5.0153,-5.0338,-5.0082,-5.0063,-5.0058,-5.0047,-5.0189,-5.0203,-5.0251,-5.0516,-5.0522,-5.0272,-5.0281,-5.0287,-5.0291,0,0,0,0,0,0,0,-4.985,-4.9694,-5.0106,-5.004,-5.0035,-5.0247,-5.025,-5.0252,-5.008,-5.007,-5.0061,-5.0052,-5.0197,-5.0211,-5.0225,-5.0509,0,0,-5.0271,-5.0277,0,0,0,0,0,0,0,0,-4.9683,-4.9692,-5.0106,-5.0108,-5.011,-5.0248,-5.0249,-5.0251,-5.0078,-5.0071,-5.0063,-5.0055,-5.02,-5.0212,-5.0224,0,0,0,0,0,0,0,0,0,0,0,0,0,0,0,-5.0106,-5.0108,0,-5.0248,-5.0249,-5.0251,-5.0077,-5.0071,-5.0064,-5.0058,-5.0204,-5.0213,-5.0223,0,0,0,0,0,0,0,0,0,0,0,0,0,0,0,0,0,0,0,0,0,0,0,0,0,0,0,0,0,0,0,0,0,0,0,0,0,0,0,0,0,0,0,0,0,0,0,0,0,0,0,0,0,0,0,0,0,0,0,0,0,0,0,0,0,0,0,0,0]}],[{"header":{"parameterUnit":"kt","parameterCategory":2,"dx":1,"dy":1,"la1":30.253999710083008,"la2":30.299108505249023,"lo1":-89.0895004272461,"lo2":-89.04439544677734,"nx":28,"ny":28,"refTime":"2022-09-27T21:00:00:Z","depth":0,"parameterNumber":2,"parameterNumberName":"V-component_of_WINDS"},"data":[-17.1294,-17.1626,-17.1614,-17.1984,-17.2033,-17.2282,-17.2366,-17.2471,-17.255,-17.2839,-17.3001,-17.3016,-17.3083,-17.3269,-17.3439,-17.344,-17.3514,-17.3642,-17.3621,-17.3068,-17.299,-17.2915,-17.2838,-17.3658,-17.3659,-17.4198,-17.4203,-17.4207,-17.0887,-17.0943,-17.1135,-17.1313,-17.1476,-17.1345,-17.1471,-17.1616,-17.1839,-17.1938,-17.2098,-17.2349,-17.2542,-17.2566,-17.2748,-17.2896,-17.2842,-17.2946,-17.2936,-17.2948,-17.2355,-17.2274,-17.2987,-17.2987,-17.2987,-17.2986,-17.2986,-17.2986,-17.0143,-17.0343,-17.0443,-17.0652,-17.0736,-17.0853,-17.1038,-17.1055,-17.1238,-17.1432,-17.1375,-17.1625,-17.1717,-17.1926,-17.199,-17.2181,-17.2061,-17.2168,-17.2196,-17.2224,-17.2259,-17.1486,-17.221,-17.2207,-17.2206,-17.2204,-17.2202,0,-16.9594,-16.9571,-16.9754,-16.9935,-17.0085,-17.0222,-17.0343,-17.0457,-17.0392,-17.0546,-17.0767,-17.089,-17.113,-17.1332,-17.1497,-17.1541,-17.1416,-17.14,-17.1474,-17.1508,-17.1517,-17.1517,-17.0553,-17.1379,-17.1372,-17.1367,-17.1363,-17.136,-16.8844,-16.9079,-16.9175,-16.9306,-16.9369,-16.9581,-16.9702,-16.9628,-16.9759,-16.9894,-17.007,-17.0272,-17.043,-17.078,-17.0789,-17.0966,-17.0907,-17.1225,-17.0933,-17.0955,-17.0913,-17.0901,-17.0924,-17.1284,-17.1294,-17.1302,-17.1308,0,-16.8422,-16.8399,-16.8756,-16.8827,-16.8851,-16.9099,-16.9156,-16.9349,-16.9341,-16.9605,-16.9661,-16.9649,-16.9863,-16.982,-17.0055,-17.0025,-17.0424,-17.0361,-17.0392,-17.0378,-17.0659,-17.0634,-17.1578,-17.1697,-17.0845,-17.0853,-17.0859,0,-16.7773,-16.8082,-16.8028,-16.8237,-16.8576,-16.8495,-16.8832,-16.8858,-16.8938,-16.9145,-16.8998,-16.9194,-16.9108,-16.9297,-16.9253,-16.9571,-16.9614,-16.9611,-16.9596,-16.9626,-16.9627,-16.9693,-16.9655,-16.9552,-16.9547,-16.9543,-16.9539,0,-16.7117,-16.745,-16.7789,-16.786,-16.7966,-16.8125,-16.8175,-16.8263,-16.8382,-16.8528,-16.8603,-16.8778,-16.8874,-16.9009,-16.8953,-16.8756,-16.934,-16.9058,-16.9336,-16.9338,-16.9469,-16.9462,-17.0307,-16.9533,-16.9532,-16.953,-16.9528,0,-16.6589,-16.6745,-16.724,-16.7323,-16.7413,-16.7635,-16.7804,-16.7984,-16.8087,-16.8076,-16.8189,-16.8085,-16.836,-16.8083,-16.8459,-16.8219,-16.8321,-16.8341,-16.836,-16.8384,-16.8076,-16.8561,-16.9368,-16.9452,-16.8403,-16.8393,-16.8385,0,-16.5845,-16.6339,-16.6273,-16.6744,-16.6966,-16.6787,-16.703,-16.7127,-16.7132,-16.7316,-16.7317,-16.7528,-16.7313,-16.7373,-16.7564,-16.7574,-16.7886,-16.753,-16.7792,-16.7803,-16.7774,-16.8516,-16.8649,-16.9196,-16.8264,-16.8277,-16.8286,0,-16.5266,-16.5395,-16.5485,-16.5562,-16.5681,-16.5865,-16.6145,-16.6337,-16.6464,-16.6588,-16.6819,-16.7111,-16.6961,-16.7061,-16.6994,-16.7196,-16.7672,-16.7007,-16.7008,-16.7129,-16.8199,-16.8324,-16.8416,-16.7581,-16.7596,-16.7608,-16.819,0,-16.4476,-16.4719,-16.4958,-16.5136,-16.5271,-16.5563,-16.5523,-16.5669,-16.5592,-16.5591,-16.5929,-16.5995,-16.6188,-16.6279,-16.6206,-16.6683,-16.6596,-16.6433,-16.6162,-16.6649,-16.6839,-16.6917,-16.5881,-16.5872,-16.5865,-16.586,0,0,-16.3771,-16.4119,-16.4039,-16.431,-16.442,-16.423,-16.4546,-16.4629,-16.4803,-16.4881,-16.4729,-16.5154,-16.5215,-16.5628,-16.5776,-16.5854,-16.5934,-16.5766,-16.6417,-16.6479,-16.6537,-16.6742,-16.6824,-16.5847,-16.5845,-16.5842,-16.584,0,-16.3475,-16.3549,-16.3864,-16.3948,-16.4069,-16.4053,-16.4129,-16.4214,-16.4228,-16.4559,-16.4396,-16.4592,-16.4934,-16.502,-16.5109,-16.5715,-16.558,-16.5776,-16.6118,-16.6348,-16.642,-16.6483,-16.6699,-16.6778,-16.5823,-16.5824,-16.5825,0,-16.2898,-16.2964,-16.3112,-16.3355,-16.3432,-16.3663,-16.3369,-16.3627,-16.3796,-16.3572,-16.3904,-16.3935,-16.4046,-16.4443,-16.4619,-16.4485,-16.5259,-16.5007,-16.5049,-16.5068,-16.5288,-16.5375,-16.5451,-16.4441,-16.4436,-16.4432,0,0,-16.2647,-16.2873,-16.2919,-16.3288,-16.3348,-16.3329,-16.3448,-16.3385,-16.3491,-16.3535,-16.3573,-16.3679,-16.3875,-16.4007,-16.419,-16.4632,-16.4647,-16.4838,-16.4904,-16.4957,-16.5005,-16.524,-16.5325,-16.4415,-16.4414,-16.4413,0,0,-16.2526,-16.2596,-16.2502,-16.2925,-16.3035,-16.3102,-16.3327,-16.3211,-16.3372,-16.3334,-16.3235,-16.3259,-16.3629,-16.3666,-16.3438,-16.4092,-16.3824,-16.3877,-16.4055,-16.4137,-16.4201,-16.4185,-16.3143,0,0,0,0,0,-16.2204,-16.2587,-16.2501,-16.2566,-16.2871,-16.315,-16.3187,-16.3118,-16.293,-16.3109,-16.3122,-16.2969,-16.3522,-16.3318,-16.3381,-16.3637,-16.419,-16.423,-16.4267,-16.46,-16.4686,-16.4758,0,0,0,0,0,0,-16.2229,-16.2309,-16.249,-16.2576,-16.2643,-16.3135,-16.2802,-16.2793,-16.2909,-16.2875,-16.2972,-16.2972,-16.2915,-16.328,-16.3338,-16.3583,-16.3123,-16.4205,-16.4239,-16.427,-16.4629,-16.47,-16.476,0,0,0,0,0,-16.2248,-16.2312,-16.282,-16.2569,-16.2628,-16.2627,-16.2787,-16.2777,-16.2865,-16.2886,-16.2881,-16.2802,-16.2924,-16.2968,-16.3314,-16.3558,-16.3082,-16.3104,-16.4227,-16.4254,-16.4278,-16.4664,0,0,0,0,0,0,-16.2262,-16.2304,-16.283,-16.2845,-16.242,-16.2598,-16.2623,-16.2764,-16.2865,-16.2866,-16.2709,-16.2681,-16.2935,-16.2967,-16.3002,-16.3554,-16.3049,-16.3072,-16.3085,-16.4248,-16.4268,-16.4287,0,0,0,0,0,0,-16.2268,-16.2318,-16.2838,-16.2654,-16.2647,-16.2571,-16.2595,-16.2877,-16.2869,-16.2682,-16.2662,-16.2696,-16.288,-16.2969,-16.2995,-16.3439,-16.3023,-16.3045,-16.306,-16.3069,-16.4265,-16.4281,0,0,0,0,0,0,-16.2288,-16.233,-16.2649,-16.2644,-16.2637,-16.28,-16.2819,-16.3134,-16.2716,-16.268,-16.2676,-16.2658,-16.2887,-16.2911,-16.2991,-16.3426,-16.3436,-16.3024,-16.3039,-16.3049,-16.3056,0,0,0,0,0,0,0,-16.2304,-16.2037,-16.2742,-16.2636,-16.2629,-16.2984,-16.2988,-16.2992,-16.2712,-16.2696,-16.268,-16.2665,-16.2901,-16.2924,-16.2948,-16.3414,0,0,-16.3022,-16.3032,0,0,0,0,0,0,0,0,-16.2017,-16.2032,-16.2742,-16.2745,-16.2748,-16.2985,-16.2988,-16.2992,-16.2709,-16.2696,-16.2684,-16.2671,-16.2907,-16.2926,-16.2945,0,0,0,0,0,0,0,0,0,0,0,0,0,0,0,-16.2742,-16.2745,0,-16.2985,-16.2988,-16.2991,-16.2707,-16.2697,-16.2686,-16.2676,-16.2912,-16.2928,-16.2944,0,0,0,0,0,0,0,0,0,0,0,0,0,0,0,0,0,0,0,0,0,0,0,0,0,0,0,0,0,0,0,0,0,0,0,0,0,0,0,0,0,0,0,0,0,0,0,0,0,0,0,0,0,0,0,0,0,0,0,0,0,0,0,0,0,0,0,0,0]}]]]